Location: Peterborough
(44.3091°N, 78.3197°W)
Time: 16:21:59
(UTC-04:00)

Explorer 7 - Pass Details

Date: 28 March 2023
Orbit: 477 x 653 km, 50.3° (Epoch: 04 June)

Event Time Altitude Azimuth Distance (km) Brightness Sun altitude
Rises 21:28:00 0° 297° (WNW) 2,793 12.1 -20.1°
Reaches altitude 10° 21:30:21 10° 300° (WNW) 1,860 10.7 -20.5°
Maximum altitude 21:34:33 64° 22° (NNE) 600 6.9 -21.2°
Enters shadow 21:34:58 59° 58° (ENE) 622 6.8 -21.2°
Drops below altitude 10° 21:38:29 10° 105° (ESE) 1,744 - -21.8°
Sets 21:40:38 0° 109° (ESE) 2,602 - -22.1°
